Location: Morosaglia
(42.4360°N, 9.3069°E)
Time: 03:09:33
(UTC+00:00)

SL-16 R/B - Pass Details

Date: 07 June 2020
Orbit: 986 x 1006 km, 99.5° (Epoch: 06 July)

Event Time Altitude Azimuth Distance (km) Brightness Sun altitude
Exits shadow 01:55:28 23° 214° (SW) 1,951 3.4 -15.8°
Maximum altitude 01:58:31 36° 263° (W) 1,506 3.2 -15.4°
Drops below altitude 10° 02:04:10 10° 329° (NNW) 2,759 5.1 -14.8°
Sets 02:06:53 0° 338° (NNW) 3,714 5.9 -14.5°
